TimeEST,TemperatureF,Dew PointF,Humidity,Sea Level PressureIn,VisibilityMPH,Wind Direction,Wind SpeedMPH,Gust SpeedMPH,PrecipitationIn,Events,Conditions,WindDirDegrees,DateUTC
12:53 AM,66.0,54.0,65,30.17,10.0,NNE,13.8,-,N/A,,Clear,20,2013-02-01 05:53:00
1:43 AM,64.4,53.6,68,30.18,10.0,North,11.5,18.4,N/A,,Mostly Cloudy,10,2013-02-01 06:43:00
1:53 AM,64.9,53.1,65,30.18,10.0,NNE,12.7,19.6,N/A,,Overcast,20,2013-02-01 06:53:00
2:53 AM,64.0,51.1,63,30.17,10.0,NNE,13.8,19.6,N/A,,Overcast,20,2013-02-01 07:53:00
3:53 AM,63.0,51.1,65,30.16,10.0,NNE,12.7,-,N/A,,Mostly Cloudy,20,2013-02-01 08:53:00
4:05 AM,62.6,51.8,68,30.16,10.0,NNE,15.0,20.7,N/A,,Scattered Clouds,20,2013-02-01 09:05:00
4:53 AM,63.0,51.1,65,30.15,10.0,NNE,15.0,21.9,N/A,,Clear,20,2013-02-01 09:53:00
5:53 AM,62.1,51.1,67,30.18,10.0,NNE,11.5,21.9,N/A,,Clear,20,2013-02-01 10:53:00
6:53 AM,62.1,48.9,62,30.21,10.0,North,15.0,24.2,N/A,,Mostly Cloudy,10,2013-02-01 11:53:00
7:19 AM,62.6,48.2,59,30.20,10.0,NNE,16.1,21.9,N/A,,Scattered Clouds,20,2013-02-01 12:19:00
7:53 AM,62.1,50.0,65,30.22,10.0,NNE,15.0,21.9,N/A,,Clear,20,2013-02-01 12:53:00
8:11 AM,62.6,51.8,68,30.23,10.0,NNE,17.3,23.0,N/A,,Mostly Cloudy,20,2013-02-01 13:11:00
8:19 AM,62.6,51.8,68,30.23,10.0,NNE,15.0,24.2,N/A,,Mostly Cloudy,20,2013-02-01 13:19:00
8:53 AM,63.0,52.0,67,30.24,10.0,NNE,12.7,26.5,N/A,,Mostly Cloudy,20,2013-02-01 13:53:00
9:53 AM,64.9,52.0,63,30.26,10.0,NNE,17.3,24.2,N/A,,Partly Cloudy,30,2013-02-01 14:53:00
10:53 AM,66.0,53.1,63,30.26,10.0,North,16.1,23.0,N/A,,Mostly Cloudy,10,2013-02-01 15:53:00
11:53 AM,66.0,54.0,65,30.26,10.0,North,13.8,24.2,N/A,,Mostly Cloudy,10,2013-02-01 16:53:00
12:53 PM,69.1,55.9,63,30.24,10.0,NNE,16.1,24.2,N/A,,Mostly Cloudy,30,2013-02-01 17:53:00
1:53 PM,70.0,55.9,61,30.21,10.0,NNE,15.0,21.9,N/A,,Clear,20,2013-02-01 18:53:00
2:53 PM,70.0,55.9,61,30.20,10.0,NNE,13.8,21.9,N/A,,Scattered Clouds,20,2013-02-01 19:53:00
3:53 PM,71.1,57.0,61,30.20,10.0,North,15.0,19.6,N/A,,Clear,10,2013-02-01 20:53:00
4:53 PM,70.0,55.9,61,30.19,10.0,NNE,13.8,20.7,N/A,,Clear,30,2013-02-01 21:53:00
5:53 PM,70.0,54.0,57,30.20,10.0,NNE,12.7,-,N/A,,Mostly Cloudy,30,2013-02-01 22:53:00
6:53 PM,69.1,53.1,57,30.20,10.0,NNE,10.4,17.3,N/A,,Overcast,30,2013-02-01 23:53:00
7:53 PM,70.0,53.1,55,30.21,10.0,NE,11.5,18.4,N/A,,Overcast,50,2013-02-02 00:53:00
8:53 PM,69.1,55.0,61,30.22,10.0,NE,11.5,23.0,N/A,,Scattered Clouds,40,2013-02-02 01:53:00
9:53 PM,68.0,57.9,70,30.22,10.0,ENE,9.2,-,N/A,,Clear,60,2013-02-02 02:53:00
10:53 PM,66.9,57.9,73,30.23,10.0,ENE,10.4,-,N/A,,Clear,60,2013-02-02 03:53:00
11:53 PM,66.9,57.9,73,30.22,10.0,NE,10.4,16.1,N/A,,Mostly Cloudy,50,2013-02-02 04:53:00